Home > Time Zones > World Clock > Weather > Aktau > Past weeks

Flag for Kazakhstan Weather past 2 weeks in Aktau, Kazakhstan

Now
55 °F

Sunny.


Feels Like: 53 °F
Forecast: 47 / 56 °F
Wind: 10 mph from Southeast

Location: Aktau

Current Time: Apr 19, 2015 at 10:19:15 AM

Latest Report: Apr 19, 2015 at 10:00 AM


Visibility: 10 mi

Pressure: 29.80 "Hg

Humidity: 67%

Dew point: 45 °F

Location of AktauLocation

Historic Weather in Aktau — Graph

°F

Aktau temperature yesterday

Maximum temperature yesterday: 55 °F (at 1:00 PM)
Minimum temperature yesterday: 37 °F (at 6:00 AM)
Average temperature yesterday: 48 °F

Past Weeks' High & Low Weather Summary

 TemperatureHumidityPressure
High66 °F (Apr 7, 3:00 PM)93% (Apr 4, 9:00 AM)30.33 "Hg (Apr 4, 9:00 AM)
Low28 °F (Apr 6, 5:30 AM)14% (Apr 7, 3:00 PM)29.71 "Hg (Apr 14, 3:00 AM)
Average47 °F71%30.01 "Hg
* Reported Apr 4 9:00 AM — Apr 19 9:00 AM, Aktau, Weather by CustomWeather, © 2015

Note: Actual official high and low records may vary slightly from our data, if they occured in-between our weather recording intervals... More about our weather records

Advertising

Aktau weather history for previous 24 hours

 ConditionsComfort  
Time TempWeatherWind HumidityBarometerVisibility
9:00 AM
Sun, Apr 19
52 °FSunny.13 mph77%29.80 "Hg10 mi
8:00 AM46 °FClear.10 mph87%29.80 "Hg10 mi
7:30 AM45 °FClear.8 mph87%29.80 "Hg10 mi
7:00 AM45 °FClear.10 mph87%29.80 "Hg10 mi
6:30 AM43 °FClear.10 mph93%29.80 "Hg10 mi
6:00 AM43 °FPartly cloudy.10 mph93%29.80 "HgN/A
5:30 AM43 °FFog.13 mph93%29.80 "Hg1 mi
5:00 AM46 °FPassing clouds.13 mph87%29.80 "HgN/A
4:30 AM46 °FPassing clouds.10 mph87%29.83 "HgN/A
4:00 AM46 °FPassing clouds.10 mph87%29.83 "HgN/A
3:00 AM46 °FPassing clouds.13 mph87%29.83 "HgN/A
2:30 AM46 °FPassing clouds.10 mph87%29.83 "HgN/A
2:00 AM46 °FPassing clouds.15 mph87%29.86 "HgN/A
1:30 AM46 °FPassing clouds.15 mph87%29.86 "HgN/A
1:00 AM46 °FPassing clouds.15 mph87%29.86 "HgN/A
12:30 AM46 °FPassing clouds.15 mph87%29.89 "HgN/A
12:00 AM46 °FPassing clouds.13 mph87%29.89 "HgN/A
11:30 PM
Sat, Apr 18
48 °FPassing clouds.13 mph82%29.89 "HgN/A
11:00 PM48 °FPassing clouds.13 mph82%29.89 "HgN/A
10:30 PM48 °FPassing clouds.13 mph87%29.89 "HgN/A
10:00 PM50 °FPartly sunny.13 mph82%29.89 "HgN/A
9:30 PM50 °FBroken clouds.15 mph82%29.92 "HgN/A
9:00 PM50 °FBroken clouds.15 mph82%29.89 "HgN/A
8:30 PM50 °FBroken clouds.13 mph82%29.92 "HgN/A
8:00 PM50 °FPartly sunny.13 mph82%29.92 "HgN/A
7:30 PM50 °FMostly cloudy.17 mph82%29.92 "HgN/A
7:00 PM52 °FMostly cloudy.17 mph77%29.92 "HgN/A
6:30 PM52 °FMostly cloudy.17 mph77%29.92 "HgN/A
6:00 PM52 °FMore clouds than sun.17 mph77%29.95 "HgN/A
5:30 PM52 °FMore clouds than sun.20 mph82%29.95 "HgN/A
5:00 PM52 °FMore clouds than sun.20 mph77%29.95 "HgN/A
4:30 PM52 °FScattered clouds.20 mph77%29.95 "HgN/A
4:00 PM54 °FPassing clouds.17 mph63%29.98 "HgN/A
3:30 PM54 °FPassing clouds.17 mph63%29.98 "HgN/A
3:00 PM54 °FPassing clouds.17 mph67%30.01 "HgN/A
2:30 PM55 °FPassing clouds.15 mph59%30.01 "HgN/A
2:00 PM55 °FPassing clouds.17 mph59%30.01 "HgN/A
1:30 PM55 °FPassing clouds.17 mph55%30.01 "HgN/A
1:00 PM55 °FPassing clouds.17 mph63%30.01 "HgN/A
12:30 PM54 °FPassing clouds.15 mph67%30.01 "HgN/A
12:00 PM54 °FPassing clouds.15 mph72%30.01 "HgN/A
11:30 AM54 °FPassing clouds.15 mph72%30.04 "HgN/A
11:00 AM54 °FSunny.15 mph67%30.04 "Hg10 mi
10:30 AM54 °FSunny.15 mph67%30.04 "Hg10 mi
10:00 AM52 °FPassing clouds.13 mph67%30.04 "HgN/A
Weather by CustomWeather, © 2015

See weather overviewHow to use our weather pages